Zurück zum Katalog

STARLINK-11190

AktivKommunikationVLEO
NORAD 60911·PAYLOAD·🇺🇸 United States

Gestartet Aug 31, 2024 von Cape Canaveral Space Force Station

Loading…

Nächste Überflüge (nächste 24 Stunden)

TLE

AktuellSource: CelesTrak SupGP

Epoche: Sep 14, 2026, 21:30 UTC

1 60911C 24154J   26257.89631944  .00027963  00000+0  23037-3 0  2570
2 60911  53.1571 278.5651 0001074  82.8042 186.1313 15.69692374    17

Verfolge STARLINK-11190 in Echtzeit mit AllMySat

Download on the App Store